Las Vegas, NM

7:20 PM MST on January 20, 2017 (GMT -0700)
Las Vegas Municipal

Weather History for KLVS - March, 2012

Change the Weather History Date:

Tuesday, March 20, 2012

  Actual Average Record
Temperature  
Mean Temperature 30 °F -  
Max Temperature 42 °F 54 °F 73 °F (1997)
Min Temperature 17 °F 25 °F 8 °F (1965)
Degree Days  
Heating Degree Days 36    
Moisture  
Dew Point 19 °F    
Average Humidity 76    
Maximum Humidity 96    
Minimum Humidity 35    
Precipitation  
Precipitation 0.01 in - - ()
Sea Level Pressure  
Sea Level Pressure 29.76 in    
Wind  
Wind Speed 17 mph (North)    
Max Wind Speed 38 mph    
Max Gust Speed 48 mph    
Visibility 5 miles    
Events Fog , Snow    
Averages and records for this station are not official NWS values.
T = Trace of Precipitation, MM = Missing Value Source: NWS Daily Summary

Daily Weather History Graph

Daily Weather History Graph

Search for Another Location

Airport or City:

Trip Planner

Search our weather history database for the weather conditions in past years. The results will help you decide how hot, cold, wet, or windy it might be!

Date:

Astronomy

Mar. 20, 2012 Rise Set
Actual Time 7:03 AM MDT 7:12 PM MDT
Civil Twilight 6:37 AM MDT 7:38 PM MDT
Nautical Twilight 6:08 AM MDT 8:08 PM MDT
Astronomical Twilight 5:38 AM MDT 8:38 PM MDT
Moon 5:44 AM MDT (3/20) 5:45 PM MDT (3/20)
Length of Visible Light 13h 00m
Length of Day
12h 09m
Waning Crescent, 3% of the Moon is Illuminated
Mar 20
Waning Crescent
Mar 22
New
Mar 30
First Quarter
Apr 6
Full
Apr 13
Last Quarter

Hourly Weather History & Observations

Time (MDT) Temp. Windchill Dew Point Humidity Pressure Visibility Wind Dir Wind Speed Gust Speed Precip Events Conditions
12:53 AM 23.0 °F - 3.9 °F 44% 29.57 in 10.0 mi Calm Calm - N/A   Clear
1:53 AM 17.1 °F 11.7 °F 1.9 °F 52% 29.60 in 10.0 mi SSW 3.5 mph - N/A   Clear
2:53 AM 21.9 °F 12.5 °F 5.0 °F 48% 29.58 in 10.0 mi NW 8.1 mph - N/A   Clear
3:53 AM 21.9 °F 12.5 °F 7.0 °F 53% 29.59 in 10.0 mi NNW 8.1 mph - N/A   Partly Cloudy
4:42 AM 24.8 °F 9.6 °F 17.6 °F 74% 29.64 in 2.5 mi North 23.0 mph 42.6 mph 0.00 in Snow Light Snow
4:53 AM 24.1 °F 8.0 °F 19.0 °F 81% 29.61 in 3.0 mi North 25.3 mph 31.1 mph 0.00 in Snow Light Snow
4:59 AM 24.8 °F 9.6 °F 19.4 °F 80% 29.65 in 1.5 mi North 23.0 mph 32.2 mph 0.00 in Snow Light Snow
5:05 AM 23.0 °F 7.2 °F 21.2 °F 93% 29.65 in 0.5 mi NNW 23.0 mph 32.2 mph 0.00 in Fog , Snow Snow
5:20 AM 23.0 °F 10.1 °F 21.2 °F 93% 29.65 in 2.5 mi NNW 15.0 mph - 0.00 in Snow Light Snow
5:27 AM 24.8 °F 10.0 °F 21.2 °F 86% 29.66 in 7.0 mi North 21.9 mph 28.8 mph 0.00 in Snow Light Snow
5:33 AM 24.8 °F 9.3 °F 21.2 °F 86% 29.66 in 1.8 mi North 24.2 mph 31.1 mph 0.00 in Snow Light Snow
5:43 AM 23.0 °F 8.0 °F 21.2 °F 93% 29.67 in 0.5 mi NNW 20.7 mph 27.6 mph 0.00 in Fog , Snow Snow
5:53 AM 23.0 °F 11.1 °F 21.9 °F 96% 29.65 in 1.2 mi North 12.7 mph - 0.00 in Snow Light Snow
6:02 AM 24.8 °F 14.0 °F 21.2 °F 86% 29.67 in 2.5 mi North 11.5 mph - 0.00 in Snow Light Snow
6:15 AM 24.8 °F 14.0 °F 21.2 °F 86% 29.67 in 4.0 mi North 11.5 mph - 0.00 in Snow Light Snow
6:27 AM 24.8 °F 11.9 °F 21.2 °F 86% 29.68 in 1.8 mi NNE 16.1 mph 21.9 mph 0.00 in Snow Light Snow
6:46 AM 24.8 °F 10.7 °F 21.2 °F 86% 29.70 in 0.8 mi North 19.6 mph - 0.00 in Snow Light Snow
6:53 AM 24.1 °F 9.0 °F 21.9 °F 91% 29.70 in 0.5 mi North 21.9 mph 28.8 mph 0.00 in Fog , Snow Snow
7:02 AM 24.8 °F 9.3 °F 23.0 °F 93% 29.71 in 0.2 mi North 24.2 mph - 0.01 in Fog , Snow Heavy Snow
7:13 AM 24.8 °F 9.0 °F 21.2 °F 86% 29.72 in 0.5 mi North 25.3 mph - 0.01 in Fog , Snow Snow
7:24 AM 24.8 °F 9.3 °F 21.2 °F 86% 29.72 in 0.8 mi North 24.2 mph - 0.01 in Snow Light Snow
7:30 AM 24.8 °F 8.7 °F 21.2 °F 86% 29.73 in 2.0 mi North 26.5 mph - 0.01 in Snow Light Snow
7:33 AM 24.8 °F 9.3 °F 21.2 °F 86% 29.73 in 3.0 mi North 24.2 mph - 0.01 in Snow Light Snow
7:53 AM 24.1 °F 8.7 °F 21.9 °F 91% 29.77 in 8.0 mi North 23.0 mph - 0.01 in Snow Light Snow
8:15 AM 24.8 °F 9.3 °F 21.2 °F 86% 29.76 in 2.5 mi North 24.2 mph 28.8 mph 0.00 in Snow Light Snow
8:33 AM 24.8 °F 10.7 °F 21.2 °F 86% 29.78 in 5.0 mi North 19.6 mph 27.6 mph 0.00 in Snow Light Snow
8:53 AM 26.1 °F 12.0 °F 21.0 °F 81% 29.80 in 10.0 mi North 20.7 mph - 0.00 in   Overcast
9:42 AM 26.6 °F 10.3 °F 21.2 °F 80% 29.80 in 1.8 mi North 29.9 mph 39.1 mph 0.00 in Snow Light Snow
9:51 AM 26.6 °F 11.4 °F 23.0 °F 86% 29.80 in 1.2 mi North 25.3 mph 35.7 mph 0.00 in Snow Light Snow
9:53 AM 26.1 °F 10.4 °F 23.0 °F 88% 29.83 in 1.2 mi North 26.5 mph 35.7 mph 0.00 in Snow Light Snow
10:03 AM 26.6 °F 10.6 °F 23.0 °F 86% 29.81 in 3.0 mi North 28.8 mph 39.1 mph 0.00 in Snow Light Snow
10:20 AM 26.6 °F 9.8 °F 23.0 °F 86% 29.82 in 1.8 mi North 32.2 mph 48.3 mph 0.00 in Snow Light Snow
10:32 AM 26.6 °F 9.6 °F 23.0 °F 86% 29.82 in 0.8 mi North 33.4 mph 43.7 mph 0.00 in Snow Light Snow
10:40 AM 26.6 °F 9.3 °F 23.0 °F 86% 29.82 in 1.0 mi North 34.5 mph 43.7 mph 0.00 in Snow Light Snow
10:53 AM 27.0 °F 10.5 °F 23.0 °F 85% 29.86 in 3.0 mi North 31.1 mph 48.3 mph 0.00 in   Overcast
11:53 AM 30.0 °F 15.2 °F 21.9 °F 72% 29.86 in 10.0 mi North 28.8 mph 39.1 mph 0.00 in   Partly Cloudy
12:53 PM 35.1 °F 21.2 °F 19.9 °F 54% 29.83 in 10.0 mi NNE 33.4 mph 42.6 mph N/A   Partly Cloudy
1:53 PM 39.0 °F 26.6 °F 19.0 °F 45% 29.82 in 10.0 mi NNE 33.4 mph 44.9 mph N/A   Partly Cloudy
2:53 PM 42.1 °F 30.1 °F 16.0 °F 35% 29.77 in 10.0 mi NNE 38.0 mph 47.2 mph N/A   Clear
4:53 PM 33.1 °F 21.5 °F 23.0 °F 66% 29.84 in 3.0 mi NW 19.6 mph 34.5 mph 0.00 in Snow Light Snow
5:00 PM 33.8 °F 24.3 °F 24.8 °F 70% 29.85 in 4.0 mi NW 13.8 mph - 0.00 in Snow Light Snow
5:53 PM 39.0 °F 29.0 °F 16.0 °F 39% 29.83 in 10.0 mi NNE 20.7 mph 24.2 mph 0.00 in   Partly Cloudy
7:53 PM 30.9 °F 19.8 °F 16.0 °F 54% 29.91 in 10.0 mi NE 16.1 mph - N/A   Clear
8:53 PM 28.0 °F 20.8 °F 17.1 °F 63% 29.96 in 10.0 mi North 6.9 mph - N/A   Clear
9:53 PM 26.1 °F 19.4 °F 17.1 °F 69% 30.00 in 10.0 mi NW 5.8 mph - N/A   Clear
10:53 PM 25.0 °F 15.5 °F 17.1 °F 72% 30.01 in 10.0 mi North 9.2 mph - N/A   Clear
11:53 PM 25.0 °F 13.6 °F 16.0 °F 69% 29.99 in 10.0 mi North 12.7 mph - N/A   Clear